Wind_Speed
24 21 19 16 15 13 12 11 10 9 8 7 6 5 5 4 4 4 3 4 4 4 4 4 4 4 4 4 3 3 3 3 3 4 5 6 7 8 10 11 12 14 15
26 23 21 18 16 15 13 12 11 10 9 8 7 7 6 5 5 5 4 4 5 5 5 5 5 4 4 4 4 3 3 3 3 4 5 6 7 8 10 11 13 14 16
28 25 22 20 18 17 15 14 13 12 11 10 9 8 7 6 6 5 5 5 6 6 6 5 5 5 5 4 4 4 4 4 4 4 5 6 8 9 10 11 13 15 16
30 27 25 23 20 18 17 15 14 13 12 11 10 9 8 8 7 6 6 6 6 6 6 6 6 5 5 5 4 4 4 4 5 5 6 7 8 9 10 12 13 15 17
32 29 27 25 22 20 19 17 16 15 14 13 12 11 10 9 8 7 7 7 7 7 7 6 6 6 5 5 5 5 5 5 5 6 6 7 8 10 11 12 14 15 17
34 32 29 27 24 22 21 19 18 16 15 14 13 12 11 10 9 9 8 8 8 7 7 7 7 6 6 6 5 5 5 6 6 6 7 8 9 10 12 13 15 16 18
36 34 31 29 27 24 23 21 20 18 17 16 14 14 13 12 11 10 9 9 9 8 8 8 8 7 7 7 6 6 6 6 7 7 8 9 10 11 12 14 15 17 19
39 36 34 31 29 27 25 23 22 20 19 17 16 15 14 13 12 11 11 10 10 10 9 9 9 8 8 8 8 8 8 7 7 8 9 10 11 12 14 15 17 18 20
40 38 36 33 31 29 27 25 23 22 20 19 18 16 15 15 14 13 12 12 12 11 11 10 10 10 10 10 9 9 9 9 9 10 10 11 12 14 15 16 18 19 21
42 40 38 35 33 31 29 27 25 23 22 20 19 18 17 16 15 15 14 13 13 12 12 12 12 11 11 11 11 11 11 11 11 11 12 13 14 15 16 17 19 21 22
44 42 40 37 35 32 30 28 26 25 23 22 21 19 18 18 17 16 15 15 14 14 14 13 13 13 13 12 12 12 12 12 13 13 14 15 15 16 18 19 21 23 24
45 42 41 39 36 34 32 30 28 26 24 23 22 21 20 19 18 18 17 17 16 16 16 15 15 14 14 14 14 14 14 14 15 15 16 17 18 19 20 21 23 25 26
44 43 41 40 38 35 33 31 29 27 25 24 23 22 22 21 20 20 19 19 18 18 17 17 16 16 16 16 16 16 16 16 17 18 18 19 20 21 22 23 25 26 28
46 44 43 41 39 37 34 32 30 28 27 26 25 24 23 23 22 21 21 20 20 19 19 19 18 18 18 18 18 18 18 19 19 20 21 22 23 23 25 26 27 29 30
46 45 44 43 41 39 36 33 31 30 28 27 26 25 24 24 23 23 22 22 22 22 21 21 20 20 20 20 21 21 21 22 22 23 24 24 25 26 27 28 30 31 32
46 45 44 42 41 39 37 35 33 32 30 29 27 26 25 25 24 24 24 24 24 23 23 23 23 23 23 23 23 23 24 24 25 26 26 27 28 29 30 31 32 33 34
44 44 44 42 40 38 37 36 35 33 32 31 29 27 26 26 26 26 26 25 25 25 25 25 25 26 26 26 26 26 26 27 28 29 29 30 30 31 32 33 34 35 36
40 40 42 41 39 38 38 37 36 34 33 32 31 30 29 28 27 27 27 27 27 27 27 27 28 28 28 28 29 29 29 30 31 32 32 33 33 34 35 36 37 37 38
39 38 39 39 38 37 37 37 37 36 35 34 33 32 31 30 30 29 29 29 29 29 29 30 30 30 30 31 31 31 32 33 34 35 35 36 36 37 38 38 39 39 40
38 36 38 37 37 38 38 38 37 37 37 36 35 34 34 33 32 31 31 31 31 31 32 32 32 33 33 34 34 34 35 36 36 37 38 39 39 40 40 41 41 41 41
37 36 37 37 37 37 37 37 38 37 37 37 37 36 35 35 34 34 33 33 33 34 34 34 35 35 36 36 36 36 37 38 39 39 40 41 41 42 42 42 42 42 42
36 37 36 36 37 37 37 38 38 38 39 38 38 37 37 36 37 37 36 36 36 36 36 37 37 38 38 39 39 39 39 39 40 41 42 43 44 44 44 44 43 43 43
35 35 36 37 37 37 37 38 39 39 39 39 38 37 38 38 36 36 36 37 37 37 38 38 38 38 39 40 40 41 41 41 41 42 43 44 44 45 45 45 45 44 44
36 36 37 37 37 37 37 36 37 39 39 38 38 39 38 38 38 37 38 38 39 39 39 40 40 40 41 41 42 42 43 43 43 43 43 44 45 46 46 46 46 45 44
39 38 39 39 38 38 38 37 36 37 38 39 38 38 40 40 39 39 39 40 41 41 41 41 41 42 43 43 43 43 44 45 46 46 45 46 46 47 47 46 46 45 44
39 38 38 38 38 37 38 38 38 38 38 38 38 37 37 38 39 39 39 41 41 41 42 42 42 43 44 44 45 45 46 46 47 48 48 48 48 48 47 47 46 45 44
Wind_Direction
225 224 223 222 221 222 224 225 222 218 219 221 224 226 233 245 255 269 289 298 305 310 308 310 313 319 325 332 334 338 344 353 358 360 360 360 359 360 359 358 358 356 355
225 224 222 221 221 222 224 224 222 220 221 222 224 226 233 243 254 266 279 289 296 300 302 303 305 309 316 321 323 324 329 335 341 346 349 350 351 353 353 354 354 353 351
224 224 222 222 222 222 224 223 223 222 222 223 225 228 234 242 253 264 274 283 289 294 298 298 299 302 306 309 312 315 316 319 325 332 339 342 344 346 348 350 350 349 348
222 223 222 222 223 223 223 223 223 223 223 224 227 231 235 242 252 262 271 278 283 287 291 292 293 296 297 298 300 302 303 308 316 324 331 335 338 342 343 345 346 346 346
221 222 222 222 222 223 224 224 223 224 225 226 228 232 237 242 250 258 266 272 279 283 285 286 288 291 292 291 291 293 296 303 311 317 324 330 334 337 339 340 341 342 342
220 221 222 221 222 222 223 224 224 224 226 228 229 233 237 242 248 255 262 268 273 278 282 284 286 286 287 287 288 291 294 299 305 312 319 326 330 332 335 337 338 339 339
220 220 221 221 221 222 222 223 224 224 227 228 230 233 237 242 248 254 260 265 269 273 277 280 280 281 281 282 285 288 292 296 303 309 315 320 325 329 331 334 335 336 337
219 219 220 221 221 221 222 223 223 224 227 229 230 234 237 241 247 252 258 262 265 268 272 274 275 278 279 279 279 282 285 290 297 302 308 315 320 324 327 330 331 333 334
218 219 220 220 220 221 221 222 223 224 226 228 230 234 238 242 246 250 255 259 262 265 268 270 271 274 275 275 276 278 282 287 293 298 303 309 314 317 321 325 327 329 331
217 218 219 218 219 220 221 222 223 224 226 228 230 233 237 242 245 249 252 256 259 263 265 267 268 270 271 271 274 276 280 285 290 295 299 304 309 312 316 319 322 325 326
215 216 216 217 218 219 220 221 222 224 226 228 230 233 237 240 244 248 251 255 258 260 262 264 266 267 268 269 272 275 279 283 288 292 297 301 304 308 312 315 318 320 322
213 213 213 215 216 217 218 220 221 223 225 228 231 234 237 240 244 247 250 254 257 259 260 262 264 265 267 268 271 274 279 283 287 291 295 298 301 305 309 312 315 317 319
210 212 212 214 215 216 217 219 221 223 225 228 231 234 238 241 244 247 250 253 256 258 259 261 262 263 265 268 270 274 278 282 286 290 293 296 299 302 305 309 312 314 316
210 212 212 212 213 214 215 218 219 222 225 228 230 234 237 241 244 247 251 254 256 257 259 260 261 263 266 268 271 274 277 281 285 288 291 294 297 300 303 306 308 311 313
210 211 212 212 213 213 214 216 218 222 226 228 231 234 237 241 244 248 251 254 256 258 259 261 262 264 267 269 272 274 277 281 284 288 291 293 296 299 301 303 305 308 311
213 211 210 213 214 215 216 217 219 222 226 229 231 234 237 241 245 247 251 254 256 258 260 262 264 265 267 269 272 275 278 281 285 288 290 293 296 297 299 301 303 306 308
216 214 211 212 214 217 220 220 221 224 227 230 232 235 239 242 245 248 250 253 256 259 261 263 265 267 269 271 273 276 279 282 284 287 290 292 294 296 298 300 302 304 306
216 217 215 214 216 219 222 223 224 227 230 232 234 236 239 242 245 248 251 253 256 258 261 263 266 268 270 272 274 277 279 281 284 286 289 290 292 294 296 298 300 302 303
219 219 217 218 219 222 224 225 227 229 231 234 236 238 240 242 245 248 251 253 256 258 261 264 266 269 271 273 276 278 280 282 284 286 288 289 291 293 295 297 298 300 301
223 224 222 221 222 224 226 227 229 231 234 236 238 241 243 244 246 248 251 253 256 259 261 264 267 269 271 273 275 278 280 282 284 286 287 288 290 292 293 295 297 298 299
222 224 225 224 225 226 229 231 232 233 236 240 241 242 245 246 247 249 251 254 256 259 261 263 266 268 271 273 275 277 280 282 284 285 286 288 290 291 293 294 296 297 298
224 226 226 227 228 231 234 235 238 239 240 242 241 243 246 248 249 250 252 255 257 260 262 264 266 269 271 273 275 277 279 281 284 286 287 288 290 291 293 294 295 296 297
229 229 229 229 230 233 237 239 241 241 242 243 243 246 248 247 249 252 255 256 258 260 263 265 268 270 272 275 277 278 279 281 282 285 287 288 290 291 293 294 294 295 295
232 232 232 233 234 235 237 241 243 243 242 243 246 249 249 250 251 253 257 259 261 263 265 267 269 270 273 276 278 279 282 283 284 284 286 287 288 290 291 292 293 293 294
237 238 239 240 242 241 240 242 243 244 244 244 246 251 252 254 256 256 258 261 264 265 266 268 270 271 274 276 278 280 282 283 285 286 287 288 289 290 291 291 291 291 291
239 240 242 242 243 244 244 243 244 247 248 248 250 252 254 257 258 259 262 264 266 267 267 269 271 273 275 277 279 281 282 284 285 286 287 288 289 290 290 290 290 290 290
Height
5862 5864 5866 5868 5869 5871 5872 5874 5875 5875 5876 5876 5877 5878 5878 5879 5879 5880 5880 5880 5880 5880 5880 5880 5880 5880 5880 5880 5880 5879 5879 5879 5879 5879 5878 5878 5877 5876 5876 5875 5873 5872 5871
5858 5861 5863 5865 5867 5869 5870 5872 5873 5874 5874 5875 5876 5877 5877 5878 5879 5879 5879 5879 5879 5879 5879 5879 5879 5879 5879 5879 5879 5879 5879 5879 5879 5878 5878 5877 5877 5876 5875 5874 5873 5871 5870
5855 5858 5860 5862 5864 5866 5868 5870 5871 5872 5873 5874 5875 5875 5876 5877 5877 5878 5878 5878 5879 5879 5879 5879 5879 5879 5879 5879 5879 5879 5879 5878 5878 5878 5877 5877 5876 5875 5874 5873 5872 5870 5869
5851 5854 5857 5859 5861 5863 5865 5867 5868 5870 5871 5872 5873 5874 5875 5875 5876 5877 5877 5877 5878 5878 5878 5878 5878 5878 5878 5878 5878 5878 5878 5878 5877 5877 5876 5876 5875 5874 5873 5872 5871 5869 5868
5847 5850 5853 5856 5858 5860 5863 5865 5866 5867 5869 5870 5871 5872 5873 5874 5875 5875 5876 5876 5877 5877 5877 5877 5877 5877 5877 5877 5877 5877 5877 5877 5876 5876 5875 5875 5874 5873 5872 5871 5870 5868 5866
5842 5846 5849 5852 5855 5857 5859 5862 5863 5865 5866 5867 5869 5870 5871 5872 5873 5874 5874 5875 5875 5875 5876 5876 5876 5876 5876 5876 5876 5876 5876 5876 5875 5875 5874 5874 5873 5872 5871 5870 5868 5867 5865
5837 5841 5845 5848 5851 5853 5856 5858 5860 5862 5864 5865 5866 5868 5869 5870 5871 5872 5873 5873 5874 5874 5874 5875 5875 5875 5875 5875 5875 5875 5875 5874 5874 5874 5873 5872 5871 5871 5869 5868 5866 5865 5863
5831 5836 5840 5843 5847 5849 5852 5855 5857 5859 5861 5862 5864 5865 5866 5868 5869 5870 5871 5871 5872 5872 5873 5873 5873 5873 5873 5873 5873 5873 5873 5873 5872 5872 5871 5871 5870 5869 5867 5866 5864 5862 5860
5825 5830 5835 5838 5842 5845 5848 5851 5853 5855 5857 5859 5861 5862 5864 5865 5866 5867 5868 5869 5870 5870 5871 5871 5871 5871 5872 5872 5872 5872 5871 5871 5871 5870 5869 5869 5868 5867 5865 5864 5862 5860 5858
5819 5824 5829 5833 5837 5841 5844 5847 5849 5851 5854 5856 5857 5859 5861 5862 5863 5865 5866 5867 5867 5868 5868 5869 5869 5869 5869 5869 5870 5869 5869 5869 5869 5868 5867 5866 5865 5864 5863 5861 5859 5857 5855
5813 5818 5823 5828 5832 5836 5839 5842 5845 5847 5850 5852 5854 5855 5857 5859 5860 5862 5863 5864 5865 5865 5866 5866 5867 5867 5867 5867 5867 5867 5867 5867 5866 5865 5865 5864 5863 5861 5860 5858 5856 5854 5852
5807 5812 5817 5822 5826 5830 5834 5837 5840 5843 5845 5848 5850 5852 5854 5855 5857 5858 5859 5860 5861 5862 5863 5863 5864 5864 5864 5864 5864 5864 5864 5864 5863 5863 5862 5861 5859 5858 5857 5855 5853 5850 5848
5799 5805 5810 5815 5820 5825 5829 5832 5836 5838 5841 5844 5846 5848 5850 5851 5853 5854 5856 5857 5858 5859 5859 5860 5860 5860 5861 5861 5861 5861 5860 5860 5860 5859 5858 5857 5856 5854 5853 5851 5849 5846 5844
5792 5798 5804 5809 5814 5819 5823 5827 5830 5833 5836 5839 5841 5843 5845 5847 5849 5850 5852 5853 5854 5855 5855 5856 5856 5856 5857 5857 5857 5857 5856 5856 5855 5855 5854 5853 5852 5850 5848 5846 5844 5842 5839
5786 5791 5796 5802 5807 5812 5817 5821 5825 5828 5831 5834 5836 5838 5840 5842 5844 5846 5847 5848 5849 5850 5851 5852 5852 5852 5852 5852 5852 5852 5852 5851 5851 5850 5849 5848 5846 5845 5843 5841 5839 5836 5833
5781 5786 5790 5796 5801 5806 5811 5815 5819 5822 5826 5829 5831 5833 5835 5837 5839 5841 5842 5843 5844 5845 5846 5847 5847 5847 5847 5847 5847 5847 5847 5846 5846 5845 5843 5842 5841 5839 5837 5835 5833 5830 5827
5776 5781 5786 5791 5796 5800 5805 5809 5813 5816 5820 5823 5825 5828 5830 5832 5833 5835 5837 5838 5839 5840 5841 5841 5842 5842 5842 5842 5842 5842 5841 5841 5840 5839 5838 5836 5835 5833 5831 5829 5826 5824 5821
5771 5777 5781 5785 5790 5795 5799 5803 5807 5811 5814 5817 5819 5822 5824 5826 5827 5829 5831 5832 5833 5834 5835 5836 5836 5836 5836 5836 5836 5836 5835 5834 5833 5833 5831 5830 5828 5827 5824 5822 5820 5817 5814
5765 5771 5776 5781 5785 5790 5794 5798 5801 5804 5807 5810 5813 5815 5817 5819 5821 5823 5824 5825 5827 5828 5829 5829 5830 5830 5830 5830 5830 5829 5829 5828 5827 5826 5824 5823 5821 5819 5817 5815 5812 5810 5807
5759 5765 5771 5775 5779 5784 5787 5791 5795 5798 5801 5804 5806 5808 5810 5812 5814 5816 5817 5818 5820 5821 5821 5822 5823 5823 5823 5823 5823 5822 5822 5821 5820 5818 5817 5815 5814 5811 5809 5807 5804 5802 5799
5753 5759 5764 5769 5774 5777 5782 5785 5789 5792 5795 5797 5799 5801 5803 5805 5806 5808 5810 5811 5812 5813 5814 5815 5815 5815 5815 5815 5815 5815 5814 5813 5812 5811 5809 5807 5805 5803 5801 5799 5796 5793 5791
5748 5752 5758 5763 5767 5771 5776 5779 5783 5785 5788 5790 5792 5794 5795 5797 5798 5800 5801 5803 5804 5805 5806 5806 5807 5807 5807 5807 5807 5807 5807 5806 5804 5802 5800 5798 5796 5794 5792 5790 5787 5784 5781
5741 5746 5751 5756 5760 5764 5768 5772 5775 5777 5780 5782 5784 5786 5788 5789 5790 5792 5793 5795 5796 5797 5798 5798 5798 5799 5799 5798 5797 5797 5797 5797 5796 5794 5792 5789 5787 5785 5783 5780 5777 5775 5772
5736 5740 5744 5749 5753 5757 5761 5764 5767 5769 5772 5775 5777 5778 5780 5781 5782 5784 5785 5787 5787 5788 5789 5789 5790 5790 5790 5789 5788 5787 5787 5786 5785 5785 5783 5780 5778 5776 5773 5771 5768 5765 5762
5730 5734 5737 5741 5745 5749 5752 5756 5758 5761 5764 5766 5768 5769 5771 5773 5774 5776 5777 5778 5779 5779 5780 5780 5781 5781 5780 5780 5779 5778 5777 5775 5774 5774 5773 5771 5768 5766 5763 5760 5758 5755 5752
5723 5727 5730 5734 5738 5741 5744 5747 5749 5752 5755 5757 5759 5761 5763 5764 5766 5767 5768 5769 5769 5770 5770 5771 5771 5771 5770 5770 5769 5768 5766 5765 5764 5762 5761 5760 5758 5755 5752 5750 5747 5744 5742